Location: Unspecified
(0.0000°N, 0.0000°E)
Time: 06:18:14
(UTC+00:00)

Vanguard 3 - Visible Passes

Search period start: 22 December 2014 00:00
Search period end: 01 January 2015 00:00
Orbit: 508 x 3276 km, 33.3° (Epoch: 20 December)

Date Brightness Start Highest point End Pass type
(mag) Time Alt. Az. Time Alt. Az. Time Alt. Az.
22 Dec 10.8 00:18:17 10° SW 00:23:07 21° SSW 00:23:07 21° SSW visible
22 Dec 11.6 18:22:23 10° SW 18:34:02 19° S 18:46:39 10° SSE visible
22 Dec 11.1 20:45:17 10° SSW 20:57:42 19° S 21:08:19 10° SE visible
22 Dec 10.5 23:03:02 10° SW 23:14:19 31° S 23:14:19 31° S visible
23 Dec 11.4 19:28:27 10° SW 19:40:05 18° S 19:51:19 10° SE visible
23 Dec 10.6 21:47:40 10° SSW 22:02:24 27° SSE 22:05:32 25° SE visible
24 Dec 10.8 00:04:31 10° SW 00:10:12 24° SW 00:10:12 24° SW visible
24 Dec 11.5 18:11:20 10° SW 18:22:12 18° S 18:34:03 10° SSE visible
24 Dec 11.0 20:32:06 10° SSW 20:45:46 22° SSE 20:56:47 11° SE visible
24 Dec 10.4 22:49:08 10° SW 23:01:27 37° S 23:01:27 37° S visible
25 Dec 11.3 19:16:15 10° SSW 19:28:16 19° S 19:40:00 10° SE visible
25 Dec 10.5 21:33:54 10° SSW 21:50:11 32° SSE 21:52:43 31° SE visible
25 Dec 10.7 23:50:49 10° SW 23:57:23 27° SW 23:57:23 27° SW visible
26 Dec 10.9 20:18:48 10° SSW 20:33:40 25° SSE 20:44:01 15° ESE visible
26 Dec 10.2 22:35:17 10° SW 22:48:41 43° S 22:48:41 43° S visible
27 Dec 11.3 19:03:46 10° SSW 19:16:21 20° SSE 19:28:48 10° SE visible
27 Dec 10.3 21:20:10 10° SW 21:37:44 38° SSE 21:40:00 37° SE visible
27 Dec 10.7 23:37:10 10° SW 23:44:40 30° SW 23:44:40 30° SW visible
28 Dec 10.8 20:05:26 10° SSW 20:21:22 29° SSE 20:31:22 18° ESE visible
28 Dec 10.1 22:21:31 10° SW 22:36:02 50° SSW 22:36:02 50° SSW visible
29 Dec 11.3 00:40:20 10° WSW 00:40:43 11° WSW 00:40:43 11° WSW visible
29 Dec 11.2 18:51:03 10° SSW 19:04:16 22° SSE 19:17:35 10° ESE visible
29 Dec 10.2 21:06:30 10° SW 21:25:05 44° SSE 21:27:26 43° SE visible
29 Dec 10.6 23:23:38 10° SW 23:32:06 32° WSW 23:32:06 32° WSW visible
30 Dec 10.7 19:52:04 10° SSW 20:08:50 33° SSE 20:18:52 21° ESE visible
30 Dec 10.0 22:07:51 10° SW 22:23:33 58° SSW 22:23:33 58° SSW visible
31 Dec 11.3 00:27:17 10° WSW 00:28:13 12° WSW 00:28:13 12° WSW visible
31 Dec 11.1 18:38:12 10° SSW 18:52:01 24° SSE 19:06:15 10° ESE visible
31 Dec 10.0 20:52:54 10° SW 21:12:12 52° SSE 21:15:01 49° SE visible
31 Dec 10.6 23:10:12 10° WSW 23:19:42 35° WSW 23:19:42 35° WSW visible
